Location: Glencliff
(36.1226°N, 86.7183°W)
Time: 07:50:50
(UTC+00:00)

GP-B - Pass Details

Date: 25 August 2019
Orbit: 631 x 636 km, 89.8° (Epoch: 21 September)

Event Time Altitude Azimuth Distance (km) Brightness Sun altitude
Rises 02:20:13 0° 4° (N) 2,933 6.9 -22.0°
Reaches altitude 10° 02:22:27 10° 7° (N) 2,020 6.0 -22.4°
Enters shadow 02:26:46 70° 79° (E) 673 3.0 -23.1°
